Find Kosmos-1366

NORAD ID: 13177 Int'l Des: 1982-044 Owner: GUKOS Country: SU operational
HEOCIRCULARGSO

Live Position

Loading 3D Globe...

About Kosmos-1366

Description loading...

Upcoming Passes

Passes for default location (London). Set your location on the main map for personalized predictions.

Altitude History

Loading altitude history...

Two-Line Element Set

1 13177U 82044A 26109.64986104 -.00000137 00000-0 00000+0 0 9994
2 13177 8.4341 297.8460 0008583 116.5466 105.8604 1.00287097133027
Epoch: Apr 19, 2026 • Age: 11 hours

Current Status

Altitude 35778.6 km
Velocity 3.08 km/s
Sub-Earth Point 4.31°N, 78.2°E
Launch Date May 17, 1982
Age 43.9 years
Type other

Technical Details

Classification Payload
Mass 2100.00 kg
Dry Mass 1900.00 kg
Total Mass 2100.00 kg
Length 5.50 m
Diameter 2.50 m
Span 9.00 m
Shape Cyl + 2 Pan + Plate
Manufacturer NPOPM
Bus Type Geizer
Phase Status In Orbit
Owner/State GUKOS/SU

Most Searched